La Grande, OR

11:48 PM PST on December 09, 2019 (GMT -0800)
La Grande-Union County

Weather History for KLGD - July, 2019

Change the Weather History Date:

Wednesday, July 31, 2019

  Actual Average Record
Temperature  
Mean Temperature 70 °F -  
Max Temperature 91 °F 84 °F 101 °F (1992)
Min Temperature 50 °F 50 °F 40 °F (1993)
Cooling Degree Days 6    
Growing Degree Days 20 (Base 50)    
Moisture  
Dew Point 41 °F    
Average Humidity 36    
Maximum Humidity 63    
Minimum Humidity 19    
Precipitation  
Precipitation 0.00 in - - ()
Sea Level Pressure  
Sea Level Pressure 30.39 in    
Wind  
Wind Speed 5 mph (NW)    
Max Wind Speed 17 mph    
Max Gust Speed 21 mph    
Visibility 10 miles    
Events      
Averages and records for this station are not official NWS values.
T = Trace of Precipitation, MM = Missing Value Source: NWS Daily Summary

Daily Weather History Graph

Daily Weather History Graph

Search for Another Location

Airport or City:

Astronomy

Jul. 31, 2019 Rise Set
Actual Time 5:35 AM PDT 8:20 PM PDT
Civil Twilight 5:01 AM PDT 8:54 PM PDT
Nautical Twilight 4:17 AM PDT 9:37 PM PDT
Astronomical Twilight 3:27 AM PDT 10:27 PM PDT
Moon 4:51 AM PDT (7/31) 8:25 PM PDT (7/31)
Length of Visible Light 15h 53m
Length of Day
14h 45m
Waning Crescent, 0% of the Moon is Illuminated
Jul 31
Waning Crescent
Jul 31
New
Aug 7
First Quarter
Aug 15
Full
Aug 23
Last Quarter

Hourly Weather History & Observations

Time (PDT) Temp. Dew Point Humidity Pressure Visibility Wind Dir Wind Speed Gust Speed Precip Events Conditions
12:56 AM 63.0 °F 36.0 °F 37% 30.38 in 10.0 mi NW 10.4 mph - N/A   Clear
1:56 AM 57.0 °F 36.0 °F 45% 30.39 in 10.0 mi Calm Calm - N/A   Clear
2:56 AM 55.9 °F 36.0 °F 47% 30.40 in 10.0 mi Calm Calm - N/A   Clear
3:56 AM 51.1 °F 37.9 °F 61% 30.40 in 10.0 mi Calm Calm - N/A   Clear
4:56 AM 50.0 °F 37.0 °F 61% 30.41 in 10.0 mi Calm Calm - N/A   Clear
5:56 AM 50.0 °F 37.9 °F 63% 30.43 in 10.0 mi Calm Calm - N/A   Clear
6:56 AM 54.0 °F 39.9 °F 59% 30.43 in 10.0 mi Calm Calm - N/A   Clear
7:56 AM 60.1 °F 39.0 °F 46% 30.45 in 10.0 mi Calm Calm - N/A   Clear
8:56 AM 64.9 °F 39.9 °F 40% 30.45 in 10.0 mi Calm Calm - N/A   Clear
9:56 AM 72.0 °F 41.0 °F 33% 30.44 in 10.0 mi Variable 3.5 mph - N/A   Clear
10:56 AM 77.0 °F 41.0 °F 28% 30.42 in 10.0 mi North 4.6 mph - N/A   Clear
11:56 AM 81.0 °F 42.1 °F 25% 30.41 in 10.0 mi North 4.6 mph - N/A   Clear
12:56 PM 84.0 °F 41.0 °F 22% 30.38 in 10.0 mi Variable 4.6 mph - N/A   Clear
1:56 PM 87.1 °F 42.1 °F 21% 30.37 in 10.0 mi Calm Calm - N/A   Clear
2:56 PM 90.0 °F 43.0 °F 19% 30.36 in 10.0 mi NNW 4.6 mph - N/A   Clear
3:56 PM 91.0 °F 43.0 °F 19% 30.34 in 10.0 mi WNW 10.4 mph - N/A   Clear
4:56 PM 91.0 °F 43.0 °F 19% 30.33 in 10.0 mi WNW 17.3 mph 20.7 mph N/A   Clear
5:56 PM 87.1 °F 44.1 °F 22% 30.34 in 10.0 mi WNW 17.3 mph - N/A   Clear
6:56 PM 84.0 °F 43.0 °F 24% 30.34 in 10.0 mi WNW 16.1 mph - N/A   Clear
7:56 PM 81.0 °F 42.1 °F 25% 30.36 in 10.0 mi WNW 12.7 mph - N/A   Clear
8:56 PM 73.9 °F 43.0 °F 33% 30.39 in 10.0 mi NNW 5.8 mph - N/A   Clear
9:56 PM 73.9 °F 42.1 °F 32% 30.40 in 10.0 mi WNW 8.1 mph - N/A   Clear
10:56 PM 66.0 °F 44.1 °F 45% 30.40 in 10.0 mi NNW 9.2 mph - N/A   Clear
11:56 PM 64.0 °F 43.0 °F 46% 30.41 in 10.0 mi North 11.5 mph - N/A   Clear